Hazen, ND

10:07 PM CST on December 15, 2017 (GMT -0600)
Mercer County Regional

Weather History for KHZE - November, 2012

Change the Weather History Date:

Friday, November 9, 2012

  Actual Average (KN60) Record (KN60)
Temperature  
Mean Temperature 26 °F -  
Max Temperature 28 °F 37 °F 72 °F (2016)
Min Temperature 23 °F 19 °F -4 °F (2017)
Degree Days  
Heating Degree Days 40    
Moisture  
Dew Point 24 °F    
Average Humidity 90    
Maximum Humidity 100    
Minimum Humidity 86    
Precipitation  
Precipitation 0.00 in - - ()
Sea Level Pressure  
Sea Level Pressure 30.01 in    
Wind  
Wind Speed 15 mph (ENE)    
Max Wind Speed 23 mph    
Max Gust Speed 30 mph    
Visibility 6 miles    
Events      
Averages and records for this station are not official NWS values.
T = Trace of Precipitation, MM = Missing Value Source: NWS Daily Summary

Daily Weather History Graph

Daily Weather History Graph

Search for Another Location

Airport or City:

Trip Planner

Search our weather history database for the weather conditions in past years. The results will help you decide how hot, cold, wet, or windy it might be!

Date:

Astronomy

Nov. 09, 2012 Rise Set
Actual Time 7:42 AM CST 5:17 PM CST
Civil Twilight 7:09 AM CST 5:50 PM CST
Nautical Twilight 6:32 AM CST 6:26 PM CST
Astronomical Twilight 5:56 AM CST 7:02 PM CST
Moon 2:25 AM CST (11/9) 2:47 PM CST (11/9)
Length of Visible Light 10h 40m
Length of Day
9h 34m
Waning Crescent, 23% of the Moon is Illuminated
Nov 9
Waning Crescent
Nov 13
New
Nov 20
First Quarter
Nov 28
Full
Dec 6
Last Quarter

Hourly Weather History & Observations

Time (CST) Temp. Windchill Dew Point Humidity Pressure Visibility Wind Dir Wind Speed Gust Speed Precip Events Conditions
12:15 AM 28.4 °F 19.1 °F 24.8 °F 86% 30.14 in 10.0 mi ENE 10.4 mph 20.7 mph N/A   Overcast
12:35 AM 28.4 °F 17.5 °F 24.8 °F 86% 30.14 in 10.0 mi ENE 13.8 mph 21.9 mph N/A   Overcast
12:55 AM 26.6 °F 14.3 °F 24.8 °F 93% 30.14 in 10.0 mi ENE 16.1 mph 23.0 mph N/A   Overcast
1:15 AM 26.6 °F 15.2 °F 24.8 °F 93% 30.15 in 10.0 mi East 13.8 mph 25.3 mph N/A   Overcast
1:35 AM 26.6 °F 15.2 °F 23.0 °F 86% 30.14 in 10.0 mi ENE 13.8 mph 21.9 mph N/A   Overcast
1:55 AM 26.6 °F 15.2 °F 23.0 °F 86% 30.13 in 10.0 mi East 13.8 mph 21.9 mph N/A   Overcast
2:15 AM 26.6 °F 14.7 °F 23.0 °F 86% 30.13 in 10.0 mi ENE 15.0 mph 23.0 mph N/A   Overcast
2:35 AM 26.6 °F 14.3 °F 23.0 °F 86% 30.12 in 10.0 mi East 16.1 mph 24.2 mph N/A   Overcast
2:55 AM 26.6 °F 14.7 °F 23.0 °F 86% 30.11 in 10.0 mi East 15.0 mph 25.3 mph N/A   Overcast
3:15 AM 26.6 °F 14.3 °F 23.0 °F 86% 30.11 in 10.0 mi ENE 16.1 mph 23.0 mph N/A   Overcast
3:35 AM 26.6 °F 15.7 °F 23.0 °F 86% 30.11 in 10.0 mi East 12.7 mph 25.3 mph N/A   Overcast
3:55 AM 26.6 °F 15.2 °F 23.0 °F 86% 30.10 in 10.0 mi East 13.8 mph 20.7 mph N/A   Overcast
4:15 AM 26.6 °F 13.4 °F 23.0 °F 86% 30.10 in 10.0 mi East 18.4 mph 24.2 mph N/A   Overcast
4:35 AM 26.6 °F 13.8 °F 23.0 °F 86% 30.09 in 10.0 mi ENE 17.3 mph 25.3 mph N/A   Overcast
4:55 AM 26.6 °F 13.8 °F 23.0 °F 86% 30.09 in 10.0 mi East 17.3 mph 24.2 mph N/A   Overcast
5:15 AM 26.6 °F 14.7 °F 23.0 °F 86% 30.09 in 10.0 mi ENE 15.0 mph 21.9 mph N/A   Overcast
5:35 AM 26.6 °F 13.8 °F 23.0 °F 86% 30.09 in 10.0 mi East 17.3 mph 24.2 mph N/A   Overcast
5:55 AM 26.6 °F 13.8 °F 23.0 °F 86% 30.08 in 10.0 mi East 17.3 mph 23.0 mph N/A   Overcast
6:15 AM 26.6 °F 15.2 °F 23.0 °F 86% 30.08 in 10.0 mi East 13.8 mph 25.3 mph N/A   Overcast
6:35 AM 26.6 °F 14.7 °F 23.0 °F 86% 30.07 in 10.0 mi East 15.0 mph 24.2 mph N/A   Overcast
6:55 AM 26.6 °F 13.8 °F 23.0 °F 86% 30.07 in 10.0 mi East 17.3 mph 23.0 mph N/A   Overcast
7:15 AM 26.6 °F 14.3 °F 23.0 °F 86% 30.06 in 10.0 mi East 16.1 mph 23.0 mph N/A   Overcast
7:35 AM 26.6 °F 15.7 °F 23.0 °F 86% 30.06 in 10.0 mi East 12.7 mph 24.2 mph N/A   Overcast
7:55 AM 26.6 °F 15.2 °F 23.0 °F 86% 30.08 in 10.0 mi East 13.8 mph 20.7 mph N/A   Overcast
8:15 AM 26.6 °F 14.7 °F 23.0 °F 86% 30.07 in 10.0 mi East 15.0 mph 20.7 mph N/A   Overcast
8:55 AM 26.6 °F 13.8 °F 24.8 °F 93% 30.06 in 7.0 mi East 17.3 mph 24.2 mph N/A   Overcast
9:15 AM 26.6 °F 13.8 °F 24.8 °F 93% 30.06 in 3.0 mi East 17.3 mph 23.0 mph N/A   Overcast
9:35 AM 26.6 °F 15.2 °F 24.8 °F 93% 30.05 in 1.8 mi East 13.8 mph 28.8 mph N/A   Overcast
9:55 AM 26.6 °F 13.1 °F 24.8 °F 93% 30.05 in 3.0 mi East 19.6 mph 24.2 mph N/A   Overcast
10:15 AM 26.6 °F 14.7 °F 24.8 °F 93% 30.05 in 2.0 mi East 15.0 mph 23.0 mph N/A   Overcast
10:35 AM 26.6 °F 13.4 °F 24.8 °F 93% 30.04 in 2.5 mi East 18.4 mph 24.2 mph N/A   Mostly Cloudy
10:55 AM 26.6 °F 13.8 °F 24.8 °F 93% 30.05 in 4.0 mi East 17.3 mph 25.3 mph N/A   Mostly Cloudy
11:15 AM 26.6 °F 13.8 °F 24.8 °F 93% 30.04 in 3.0 mi East 17.3 mph 25.3 mph N/A   Overcast
11:35 AM 26.6 °F 14.3 °F 24.8 °F 93% 30.04 in 4.0 mi East 16.1 mph 21.9 mph N/A   Overcast
11:55 AM 26.6 °F 15.2 °F 24.8 °F 93% 30.04 in 4.0 mi East 13.8 mph 21.9 mph N/A   Overcast
12:15 PM 26.6 °F 14.7 °F 24.8 °F 93% 30.02 in 5.0 mi ENE 15.0 mph 24.2 mph N/A   Overcast
12:35 PM 26.6 °F 14.7 °F 24.8 °F 93% 30.01 in 5.0 mi East 15.0 mph 28.8 mph N/A   Overcast
12:55 PM 26.6 °F 14.7 °F 24.8 °F 93% 30.00 in 5.0 mi East 15.0 mph 27.6 mph N/A   Overcast
1:15 PM 26.6 °F 13.4 °F 24.8 °F 93% 30.00 in 4.0 mi East 18.4 mph 25.3 mph N/A   Overcast
1:35 PM 26.6 °F 13.4 °F 24.8 °F 93% 29.98 in 3.0 mi ENE 18.4 mph 26.5 mph N/A   Overcast
1:55 PM 26.6 °F 13.8 °F 24.8 °F 93% 29.98 in 3.0 mi East 17.3 mph 24.2 mph N/A   Mostly Cloudy
2:15 PM 26.6 °F 13.8 °F 24.8 °F 93% 29.98 in 3.0 mi East 17.3 mph 26.5 mph N/A   Partly Cloudy
2:35 PM 26.6 °F 13.1 °F 24.8 °F 93% 29.97 in 3.0 mi East 19.6 mph 26.5 mph N/A   Clear
2:55 PM 26.6 °F 13.4 °F 24.8 °F 93% 29.96 in 2.5 mi East 18.4 mph 27.6 mph N/A   Partly Cloudy
3:15 PM 26.6 °F 12.7 °F 24.8 °F 93% 29.96 in 3.0 mi East 20.7 mph 26.5 mph N/A   Partly Cloudy
3:35 PM 26.6 °F 14.3 °F 24.8 °F 93% 29.96 in 3.0 mi East 16.1 mph 26.5 mph N/A   Partly Cloudy
3:55 PM 26.6 °F 14.3 °F 24.8 °F 93% 29.96 in 3.0 mi East 16.1 mph 26.5 mph N/A   Partly Cloudy
4:15 PM 26.6 °F 13.4 °F 24.8 °F 93% 29.96 in 3.0 mi East 18.4 mph 24.2 mph N/A   Partly Cloudy
4:35 PM 24.8 °F 11.5 °F 23.0 °F 93% 29.94 in 4.0 mi ENE 17.3 mph 24.2 mph N/A   Scattered Clouds
4:55 PM 24.8 °F 9.6 °F 23.0 °F 93% 29.94 in 4.0 mi ENE 23.0 mph 29.9 mph N/A   Partly Cloudy
5:15 PM 24.8 °F 11.9 °F 23.0 °F 93% 29.95 in 5.0 mi East 16.1 mph 29.9 mph N/A   Clear
5:35 PM 24.8 °F - 21.2 °F 86% 29.94 in 6.0 mi North - - N/A   Clear
5:55 PM 24.8 °F 10.7 °F 21.2 °F 86% 29.94 in 5.0 mi ENE 19.6 mph 28.8 mph N/A   Clear
6:15 PM 24.8 °F 13.4 °F 21.2 °F 86% 29.95 in 5.0 mi East 12.7 mph 26.5 mph N/A   Clear
6:35 PM 24.8 °F 12.4 °F 21.2 °F 86% 29.94 in 7.0 mi East 15.0 mph 23.0 mph N/A   Clear
6:55 PM 24.8 °F 11.5 °F 21.2 °F 86% 29.94 in 5.0 mi East 17.3 mph 25.3 mph N/A   Mostly Cloudy
7:15 PM 24.8 °F 12.9 °F 21.2 °F 86% 29.94 in 5.0 mi ENE 13.8 mph 25.3 mph N/A   Overcast
7:35 PM 23.0 °F 10.1 °F 21.2 °F 93% 29.94 in 5.0 mi East 15.0 mph 24.2 mph N/A   Overcast
7:55 PM 24.8 °F 11.1 °F 21.2 °F 86% 29.93 in 8.0 mi East 18.4 mph 26.5 mph N/A   Overcast
8:15 PM 24.8 °F 12.9 °F 21.2 °F 86% 29.92 in 5.0 mi East 13.8 mph 20.7 mph N/A   Overcast
8:35 PM 24.8 °F 11.9 °F 23.0 °F 93% 29.92 in 4.0 mi East 16.1 mph 23.0 mph N/A   Overcast
8:55 PM 24.8 °F 12.9 °F 23.0 °F 93% 29.92 in 3.0 mi East 13.8 mph 23.0 mph N/A   Overcast
9:15 PM 24.8 °F 12.4 °F 23.0 °F 93% 29.92 in 3.0 mi ENE 15.0 mph 19.6 mph N/A   Mostly Cloudy
9:35 PM 24.8 °F - 23.0 °F 93% 29.94 in 2.5 mi North - - N/A   Partly Cloudy
9:55 PM 24.8 °F - 23.0 °F 93% 29.93 in 3.0 mi North - - N/A   Clear
10:15 PM 24.8 °F 10.7 °F 23.0 °F 93% 29.90 in 3.0 mi East 19.6 mph 25.3 mph N/A   Clear
10:35 PM 24.8 °F 10.0 °F 23.0 °F 93% 29.88 in 3.0 mi East 21.9 mph 27.6 mph N/A   Clear
10:55 PM 24.8 °F 13.4 °F 23.0 °F 93% 29.88 in 3.0 mi East 12.7 mph - N/A   Clear
11:15 PM 24.8 °F 14.6 °F 24.8 °F 100% 29.88 in 3.0 mi ENE 10.4 mph 20.7 mph N/A   Clear
11:35 PM 24.8 °F 16.9 °F 24.8 °F 100% 29.86 in 3.0 mi ENE 6.9 mph - N/A   Clear
11:55 PM 26.6 °F 18.2 °F 24.8 °F 93% 29.85 in 3.0 mi NE 8.1 mph - N/A   Clear